Погода в Дар-Надежде

Украина / Харьковская область     49°09′06″N   35°44′52″E
темп.,
°C
ветер,
м/с
пор.,
м/с
влажн.,
%
обл.,
%
осадки,
мм/ч
давл.,
гПа
погр.,
м
16 мая, вс
вс1600:00+15ю226946 0.0 101311
03:00+14ююз2272100 0.0 101312
06:00+14вюв227487 0.0 101317
09:00+20в2357100 0.0 1013398
12:00+23всв3446100 0.0 10121228
15:00+25всв45476 0.0 10111744
18:00+24св586080 0.0 1009613
21:00+19св61483100 1.1 1008356
17 мая, пн
пн1700:00+17св4890100 1.1 1007135
03:00+15в4128296 1.1 1006235
06:00+14в4984100 0.0 1005147
09:00+19вюв713666 0.0 1004574
12:00+24юв81057100 0.2 10041290
15:00+25ююв810555 0.2 10041390
18:00+23ююв69655 0.0 10041232
21:00+18ююз61283100 0.0 1006454
18 мая, вт
вт1800:00+15ю51377100 0.0 1006631
03:00+13ююв61192100 0.0 1007588
06:00+14ююв5988100 0.0 1007528
09:00+17ю6976100 0.0 1007608
12:00+21ю786017 0.0 10071279
15:00+21ю796487 1.4 10061231
18:00+18ююз7118099 1.3 1006963
21:00+16ю51192100 1.7 1006462
19 мая, ср
ср1900:00+15ююз51093100 2.0 1005517
03:00+13ююв3896100 4.8 1005324
06:00+13зюз5995100 0.8 1006524
09:00+13зюз7983100 1.0 1007797
12:00+13юз71080100 0.5 1009957
15:00+12юз71381100 0.6 10101094
18:00+13зюз71278100 0.1 1010961
21:00+13зюз7147223 0.1 10111075
20 мая, чт
чт2000:00+10зюз512870 0.0 1012445
03:00+8юз410950 0.0 1013218
06:00+9юз369114 0.0 1014143
09:00+15юз356793 0.0 1014525
12:00+19ююз4453100 0.0 10141380
15:00+21ююв2346100 0.0 10131880
18:00+20вюв3558100 0.0 1012352
21:00+15всв4107194 0.0 1012170